User: anonymous   Login
Location: Muenchen
(48.1800°N, 11.5800°E)
Time: 19:10:56
(UTC+02:00)
Language:

Iridium 73 - Orbit

View from above orbital plane
View from above orbital plane
View from above satellite
View from above satellite

Ground track
Ground track

The orbit data is extracted from the following two-line orbital elements,

1 25344U 98032C   16183.53772674  .00000129  00000-0  28672-4 0  9991
2 25344  86.4420 351.1207 0002632 104.9955 255.1540 14.48948842956777
Epoch (UTC): 01 July 2016 12:54:19
Eccentricity: 0.0002632
inclination: 86.4420°
perigee height: 727 km
apogee height: 731 km
right ascension of ascending node: 351.1207°
argument of perigee: 104.9955°
revolutions per day: 14.48948842
mean anomaly at epoch: 255.1540°
orbit number at epoch: 95677

The dashed part of the orbit path shows where the satellite is in the earth's shadow,  

DLR